This is the latest recevied weather packets stored in our database for station/object KB7STN. If no packets are shown the sender has not sent any weather packets the latest 10 day(s).
| Time | Temp. | Humidity | Pressure | Rain* | Wind** | Luminosity | Snow |
|---|---|---|---|---|---|---|---|
| 1788219624 | 16.11° C | 75% | 1022.7 hPa | 5.59 mm | - | - | - |
| 1788219324 | 16.11° C | 74% | 1022.4 hPa | 7.62 mm | - | - | - |
| 1788219024 | 16.11° C | 75% | 1022.2 hPa | 8.89 mm | - | - | - |
| 1788218724 | 16.11° C | 76% | 1021.9 hPa | 8.89 mm | - | - | - |
| 1788218424 | 16.11° C | 79% | 1021.7 hPa | 8.64 mm | - | - | - |
| 1788218124 | 16.11° C | 80% | 1021.7 hPa | 8.64 mm | - | - | - |
| 1788217824 | 15.56° C | 81% | 1021.6 hPa | 8.38 mm | - | - | - |
| 1788217524 | 16.11° C | 80% | 1021.4 hPa | 8.38 mm | - | - | - |
| 1788217224 | 16.11° C | 79% | 1021.4 hPa | 8.13 mm | - | - | - |
| 1788216924 | 16.67° C | 76% | 1021.3 hPa | 8.13 mm | - | - | - |
| 1788216624 | 17.22° C | 73% | 1021.5 hPa | 8.13 mm | - | - | - |
| 1788216324 | 18.33° C | 68% | 1021.3 hPa | 6.6 mm | - | - | - |
| 1788216024 | 19.44° C | 59% | 1020.8 hPa | 3.3 mm | - | - | - |
| 1788215724 | 22.22° C | 51% | 1020.3 hPa | 1.27 mm | - | - | - |
| 1788215424 | 23.33° C | 44% | 1020.1 hPa | 0 mm | - | - | - |
| 1788215124 | 23.33° C | 42% | 1019.2 hPa | 0 mm | - | - | - |
| 1788214824 | 23.33° C | 42% | 1018.7 hPa | 0 mm | - | - | - |
| 1788214524 | 23.89° C | 41% | 1018.7 hPa | 0 mm | - | - | - |
| 1788214224 | 23.89° C | 43% | 1018.7 hPa | 0 mm | - | - | - |
| 1788213924 | 24.44° C | 43% | 1018.5 hPa | 0 mm | - | - | - |
| 1788213624 | 24.44° C | 45% | 1018.4 hPa | 0 mm | - | - | - |
| 1788213324 | 25° C | 45% | 1018.2 hPa | 0 mm | - | - | - |
| 1788213024 | 25° C | 45% | 1018.2 hPa | 0 mm | - | - | - |
| 1788212724 | 25.56° C | 45% | 1018.2 hPa | 0 mm | - | - | - |
| 1788212424 | 25.56° C | 44% | 1018.3 hPa | 0 mm | - | - | - |
* Rain latest hour (hover to see other rain measurements)
** Current wind speed in m/s (hover to see current wind gust speed)